User: anonymous   Login
Location: Caltech
(34.1382°N, 118.1253°W)
Time: 13:35:27
(UTC-07:00)
Language:

AO-27 - Orbit

View from above orbital plane
View from above orbital plane
View from above satellite
View from above satellite

Ground track
Ground track

The orbit data is extracted from the following two-line orbital elements,

1 22825U 93061C   17177.21875429 -.00000018 +00000-0 +10935-4 0  9991
2 22825 098.8127 142.9114 0007537 310.7549 049.2978 14.29999032238425
Epoch (UTC): 26 June 2017 05:15:00
Eccentricity: 0.0007537
inclination: 98.8127°
perigee height: 786 km
apogee height: 797 km
right ascension of ascending node: 142.9114°
argument of perigee: 310.7549°
revolutions per day: 14.29999032
mean anomaly at epoch: 49.2978°
orbit number at epoch: 23842

The dashed part of the orbit path shows where the satellite is in the earth's shadow,  

DLR